Date String (YYYY-MM-DD hh:mm:ss) UTC,Instrument flags,Ambient pressure (hPa),Sample flow (lpm),Bypass flow (lpm),Sample temperature (°C),Ambient temperature (°C),ASC tube jacket temperature (°C),LED temperature (°C),Box temperature (°C),Sample RH (%),Span deviation,Mass concentration (μg/m³),Mass concentration (μg/m³),Mass concentration (μg/m³)
DateTimeUTC,F1_M11,P_M11,Q1_M11,Q2_M11,T1_M11,T2_M11,T3_M11,T4_M11,T5_M11,U1_M11,ZSPAN_M11,X0_M11,X2_M11,X1_M11
2022-04-09 23:00:00,,0812.7,4.99,0.00,29.7,28.4,00.0,38.6,31.6,06.6,0000.0,0011.86,0004.13,0002.10
2022-04-09 23:01:00,,0812.7,5.01,0.00,29.8,28.5,00.0,38.6,31.6,06.6,0000.0,0011.91,0004.14,0002.11
2022-04-09 23:02:00,,0812.7,4.99,0.00,29.8,28.7,00.0,38.6,31.6,06.8,0000.0,0012.29,0004.14,0002.10
2022-04-09 23:03:00,,0812.6,4.99,0.00,29.8,28.8,00.0,38.6,31.7,06.8,0000.0,0012.57,0004.09,0002.11
2022-04-09 23:04:00,,0812.7,5.01,0.00,29.9,28.8,00.0,38.7,31.7,06.6,0000.0,0012.08,0004.04,0002.10
2022-04-09 23:05:00,,0812.6,5.01,0.00,29.9,28.9,00.0,38.7,31.8,06.7,0000.0,0012.14,0004.06,0002.09
2022-04-09 23:06:00,,0812.6,4.98,0.00,29.9,28.9,00.0,38.7,31.8,06.8,0000.0,0013.12,0004.15,0002.07
2022-04-09 23:07:00,,0812.7,5.00,0.00,29.9,29.0,00.0,38.7,31.8,06.8,0000.0,0013.10,0004.14,0002.07
2022-04-09 23:08:00,,0812.8,5.01,0.00,29.9,28.5,00.0,38.7,31.7,06.9,0000.0,0013.00,0004.11,0002.07
2022-04-09 23:09:00,,0812.7,4.99,0.00,29.8,26.5,00.0,38.7,31.2,06.8,0000.0,0013.44,0004.07,0002.08
2022-04-09 23:10:00,,0812.6,5.02,0.00,29.7,26.1,00.0,38.7,31.1,07.0,0000.0,0013.24,0003.99,0002.05
2022-04-09 23:11:00,,0812.6,5.00,0.00,29.6,26.5,00.0,38.7,31.1,07.1,0000.0,0012.98,0004.05,0002.05
2022-04-09 23:12:00,,0812.6,5.00,0.00,29.6,26.9,00.0,38.6,31.2,07.1,0000.0,0013.31,0004.07,0002.06
2022-04-09 23:13:00,,0812.6,4.99,0.00,29.6,27.2,00.0,38.6,31.3,07.2,0000.0,0013.36,0004.10,0002.07
2022-04-09 23:14:00,,0812.6,4.99,0.00,29.6,27.6,00.0,38.6,31.4,07.2,0000.0,0013.03,0004.15,0002.05
2022-04-09 23:15:00,,0812.5,5.01,0.00,29.7,27.9,00.0,38.6,31.4,07.2,0000.0,0013.19,0004.19,0002.04
2022-04-09 23:16:00,,0812.5,4.98,0.00,29.7,28.1,00.0,38.6,31.5,07.3,0000.0,0012.91,0004.16,0002.04
2022-04-09 23:17:00,,0812.4,5.01,0.00,29.7,28.3,00.0,38.6,31.5,07.0,0000.0,0011.93,0004.06,0002.05
2022-04-09 23:18:00,,0812.4,5.01,0.00,29.8,28.5,00.0,38.6,31.6,06.9,0000.0,0012.58,0004.09,0002.07
2022-04-09 23:19:00,,0812.4,4.98,0.00,29.8,28.7,00.0,38.6,31.7,06.8,0000.0,0013.32,0004.14,0002.08
2022-04-09 23:20:00,,0812.5,5.00,0.00,29.8,28.8,00.0,38.6,31.7,06.8,0000.0,0013.51,0004.17,0002.07
2022-04-09 23:21:00,,0812.4,5.01,0.00,29.9,28.8,00.0,38.7,31.7,06.8,0000.0,0014.10,0004.20,0002.08
2022-04-09 23:22:00,,0812.4,4.97,0.00,29.9,28.9,00.0,38.7,31.7,06.7,0000.0,0014.54,0004.19,0002.08
2022-04-09 23:23:00,,0812.4,5.02,0.00,29.9,28.9,00.0,38.7,31.7,06.9,0000.0,0014.05,0004.11,0002.05
2022-04-09 23:24:00,,0812.4,5.00,0.00,29.9,29.0,00.0,38.7,31.8,06.9,0000.0,0013.99,0004.05,0002.04
2022-04-09 23:25:00,,0812.4,4.99,0.00,29.9,27.6,00.0,38.7,31.5,07.0,0000.0,0013.99,0004.01,0002.04
2022-04-09 23:26:00,,0812.3,5.01,0.00,29.7,25.4,00.0,38.7,31.0,07.0,0000.0,0014.40,0004.01,0002.05
2022-04-09 23:27:00,,0812.3,5.00,0.00,29.6,25.2,00.0,38.7,30.9,07.1,0000.0,0015.37,0004.02,0002.06
2022-04-09 23:28:00,,0812.3,4.99,0.00,29.5,25.6,00.0,38.6,30.9,07.1,0000.0,0015.41,0004.04,0002.05
2022-04-09 23:29:00,,0812.3,5.01,0.00,29.5,26.1,00.0,38.6,31.0,06.8,0000.0,0014.81,0004.05,0002.05
2022-04-09 23:30:00,,0812.2,5.00,0.00,29.5,26.6,00.0,38.5,31.1,07.0,0000.0,0014.46,0004.03,0002.04
2022-04-09 23:31:00,,0812.1,5.01,0.00,29.5,27.0,00.0,38.5,31.2,06.8,0000.0,0014.84,0004.07,0002.03
2022-04-09 23:32:00,,0812.2,4.99,0.00,29.5,27.3,00.0,38.5,31.3,06.9,0000.0,0015.14,0004.05,0002.03
2022-04-09 23:33:00,,0812.1,5.01,0.00,29.5,27.6,00.0,38.5,31.3,07.0,0000.0,0014.90,0004.12,0002.05
2022-04-09 23:34:00,,0812.1,4.99,0.00,29.5,27.9,00.0,38.5,31.3,06.7,0000.0,0014.98,0004.19,0002.07
2022-04-09 23:35:00,,0812.1,5.00,0.00,29.5,28.1,00.0,38.5,31.4,06.4,0000.0,0014.62,0004.24,0002.09
2022-04-09 23:36:00,,0812.0,5.01,0.00,29.6,28.2,00.0,38.5,31.4,06.4,0000.0,0014.37,0004.27,0002.12
2022-04-09 23:37:00,,0812.0,4.99,0.00,29.6,28.3,00.0,38.5,31.4,06.3,0000.0,0013.76,0004.28,0002.14
2022-04-09 23:38:00,,0812.0,4.99,0.00,29.6,28.4,00.0,38.5,31.5,06.4,0000.0,0012.82,0004.29,0002.12
2022-04-09 23:39:00,,0812.0,5.01,0.00,29.7,28.6,00.0,38.5,31.5,06.5,0000.0,0012.94,0004.33,0002.12
2022-04-09 23:40:00,,0811.9,5.00,0.00,29.7,28.7,00.0,38.5,31.5,06.6,0000.0,0012.91,0004.29,0002.13
2022-04-09 23:41:00,,0811.9,4.99,0.00,29.7,28.8,00.0,38.5,31.6,06.5,0000.0,0013.30,0004.30,0002.15
2022-04-09 23:42:00,,0811.9,5.01,0.00,29.8,28.8,00.0,38.5,31.7,06.3,0000.0,0012.52,0004.25,0002.15
2022-04-09 23:43:00,,0812.0,4.99,0.00,29.8,28.9,00.0,38.6,31.7,06.1,0000.0,0011.63,0004.28,0002.15
2022-04-09 23:44:00,,0811.9,4.99,0.00,29.8,28.9,00.0,38.6,31.7,06.0,0000.0,0011.27,0004.24,0002.12
2022-04-09 23:45:00,,0811.9,5.01,0.00,29.9,28.9,00.0,38.6,31.7,05.9,0000.0,0011.91,0004.23,0002.12
2022-04-09 23:46:00,,0811.9,5.00,0.00,29.9,29.0,00.0,38.7,31.7,06.0,0000.0,0012.32,0004.26,0002.10
2022-04-09 23:47:00,,0811.9,4.99,0.00,29.9,28.5,00.0,38.7,31.6,05.9,0000.0,0012.63,0004.29,0002.11
2022-04-09 23:48:00,,0811.9,5.00,0.00,29.8,26.5,00.0,38.7,31.2,05.8,0000.0,0012.92,0004.32,0002.11
2022-04-09 23:49:00,,0811.9,5.00,0.00,29.7,26.1,00.0,38.7,31.1,05.8,0000.0,0013.11,0004.37,0002.12
2022-04-09 23:50:00,,0811.8,5.00,0.00,29.6,26.4,00.0,38.6,31.1,05.7,0000.0,0013.12,0004.36,0002.13
2022-04-09 23:51:00,,0811.7,5.01,0.00,29.6,26.9,00.0,38.6,31.2,05.7,0000.0,0013.38,0004.40,0002.13
2022-04-09 23:52:00,,0811.7,5.01,0.00,29.6,27.2,00.0,38.6,31.3,05.6,0000.0,0012.93,0004.39,0002.13
2022-04-09 23:53:00,,0811.7,5.01,0.00,29.6,27.5,00.0,38.5,31.4,05.6,0000.0,0012.70,0004.41,0002.14
2022-04-09 23:54:00,,0811.7,4.99,0.00,29.6,27.8,00.0,38.5,31.4,05.7,0000.0,0012.81,0004.42,0002.16
2022-04-09 23:55:00,,0811.7,5.00,0.00,29.6,28.0,00.0,38.5,31.4,05.6,0000.0,0012.81,0004.45,0002.17
2022-04-09 23:56:00,,0811.7,5.01,0.00,29.7,28.2,00.0,38.5,31.4,05.7,0000.0,0012.24,0004.48,0002.18
2022-04-09 23:57:00,,0811.7,4.98,0.00,29.7,28.3,00.0,38.6,31.5,05.6,0000.0,0011.86,0004.45,0002.19
2022-04-09 23:58:00,,0811.6,5.01,0.00,29.7,28.5,00.0,38.6,31.5,05.7,0000.0,0012.14,0004.42,0002.18
2022-04-09 23:59:00,,0811.7,5.00,0.00,29.7,28.6,00.0,38.6,31.5,05.6,0000.0,0012.12,0004.38,0002.16
